Location: El Diablo
(32.4667°N, 116.4500°W)
Time: 01:18:12
(UTC+00:00)

Cosmos 1515 - Pass Details

Date: 10 September 2024
Orbit: 430 x 435 km, 82.5° (Epoch: 06 October)

Event Time Altitude Azimuth Distance (km) Brightness Sun altitude
Rises 12:41:39 0° 180° (S) 2,394 7.0 -10.2°
Reaches altitude 10° 12:43:42 10° 178° (S) 1,528 6.0 -9.8°
Maximum altitude 12:47:00 67° 95° (E) 470 3.7 -9.1°
Drops below altitude 10° 12:50:18 10° 12° (NNE) 1,533 6.4 -8.5°
Sets 12:52:22 0° 10° (N) 2,403 7.4 -8.0°
